Regional Weather Roundup
Issued by NWS

Home | Current Version | Previous Version | Graphics & Text | Print | Product List | Glossary On
Versions: 1 2 3 4 5 6 7 8 9 10 11 12 13 14 15 16 17 18 19 20 21 22 23 24 25 26 27 28 29 30 31 32 33 34 35 36 37 38 39 40 41 42 43 44 45 46 47 48 49 50
000
ASUS43 KIND 250659
RWRIN

WEATHER ROUNDUP FOR INDIANA
NATIONAL WEATHER SERVICE INDIANAPOLIS IN
300 AM EDT MON MAY 25 2015

NOTE: "FAIR" INDICATES FEW OR NO CLOUDS BELOW 12,000 FEET WITH NO
SIGNIFICANT WEATHER AND/OR OBSTRUCTIONS TO VISIBILITY.

* - STATION DOES NOT REPORT WEATHER SUCH AS PRECIPITATION OR FOG.

+ - STATION NOT QUALITY CONTROLLED BY THE NATIONAL WEATHER SERVICE.
    USE DATA WITH CAUTION...ESPECIALLY DEWPOINT AND RELATIVE
    HUMIDITY OBSERVATIONS.

INZ001>003-010>013-019-020-250800-
NORTHWEST INDIANA

CITY           SKY/WX    TMP DP  RH WIND       PRES   REMARKS

$$

LMZ046-743>745-250800-
SOUTHERN LAKE MICHIGAN

STATION/POSITION TIME  TEMP    WIND        PRES    WAVE
                       AIR SEA DIR/SP/G            HT
                 (UTC) (F)     (DEG/KT/KT) (MB)    (FT)
BURNS HARBOR     0600   74     180/ 13/ 23 1013.2F
MICHIGAN CITY    0600   74     150/ 16/ 24   N/A
5NW MICH CITY    0600   69 53  190/ 16/ 21   N/A     2

$$

INZ004-005-014>016-021>024-250800-
NORTH CENTRAL INDIANA

CITY           SKY/WX    TMP DP  RH WIND       PRES   REMARKS
GOSHEN         CLEAR     71  56  58 S14       29.98F
SOUTH BEND     PTCLDY    72  57  59 S12       29.96F

$$

INZ006>009-017-018-025>027-250800-
NORTHEAST INDIANA

CITY           SKY/WX    TMP DP  RH WIND       PRES   REMARKS
ANGOLA *+      CLEAR     70  55  60 S10       30.01F
FORT WAYNE     PTCLDY    70  55  59 S14       30.03F

$$

INZ028-029-035-036-043>045-051>053-250800-
WEST CENTRAL INDIANA

CITY           SKY/WX    TMP DP  RH WIND       PRES   REMARKS
GREENCASTLE +  CLOUDY    72  57  60 S8G16     30.00F
LAFAYETTE      MOCLDY    72  60  66 S8        29.95F
TERRE HAUTE    CLOUDY    75  63  66 S18       29.97F

$$

INZ030>032-037>040-046>048-054>057-064-065-250800-
CENTRAL INDIANA

CITY           SKY/WX    TMP DP  RH WIND       PRES   REMARKS
GREENWOOD *+   CLOUDY    72  55  56 S12       30.03F
INDIANAPOLIS   CLOUDY    73  59  61 S17       30.00F
-EAGLE CREEK   CLOUDY    73  59  61 S8        30.00F
KOKOMO *+      CLEAR     72  57  60 S13       30.00F
MT COMFORT *+  MOCLDY    72  48  43 S8        30.03F
SHELBYVILLE    MOCLDY    75  57  53 S13       30.03F

$$

INZ033-034-041-042-049-050-058-059-250800-
EAST CENTRAL INDIANA

CITY           SKY/WX    TMP DP  RH WIND       PRES   REMARKS
MUNCIE         PTCLDY    73  56  54 S13       30.03F

$$

INZ060-061-067>069-081>083-085>088-250800-
SOUTHWEST INDIANA

CITY           SKY/WX    TMP DP  RH WIND       PRES   REMARKS
EVANSVILLE     LGT RAIN  70  65  84 S9G21     30.04S
HUNTINGBURG *+ CLOUDY    70  63  78 S14       30.05S

$$

INZ062-063-066-070>080-084-089>092-250800-
SOUTH CENTRAL AND SOUTHEAST INDIANA

CITY           SKY/WX    TMP DP  RH WIND       PRES   REMARKS
BLOOMINGTON    CLOUDY    74  61  63 S9G20     30.02F
MADISON *+     CLOUDY    72  54  53 S9G16     30.10S
SEYMOUR +      CLOUDY    73  57  56 S8        30.05F

$$




USA.gov is the U.S. government's official web portal to all federal, state and local government web resources and services.